#timestamp,LO_Frequency,Hit,StdDev 
1457089215.5,286047004.4,N
1457089235.4,286047003.2,N
1457089255.2,286047004.4,N
1457089275.0,286047002.0,N
1457089275.9,286047002.0,N
1457089295.8,286047003.9,N
1457089315.6,286047002.8,N
1457089335.4,286046999.1,N
1457089355.3,286046996.3,N
1457089375.1,286046996.8,N
1457089376.0,286046996.8,N
1457089395.8,286046995.6,N
1457089415.7,286046999.1,N
1457089435.5,286046998.7,N
1457089455.3,286046996.6,N
1457089475.1,286046996.7,N
1457089495.9,286046997.2,N
1457089515.7,286046993.5,N
1457089535.5,286046992.6,N
1457089555.4,286046992.6,N
1457089575.2,286046992.9,N
1457089595.0,286046990.7,N
1457089595.9,286046990.7,N
1457089615.8,286046987.8,N
1457089635.6,286046984.1,Y
1457089655.4,286046982.1,P
1457089675.3,286046982.3,N
1457089695.1,286046983.0,N
1457089696.0,286046983.0,N
1457089715.8,286046980.0,Y
1457089735.7,286046994.4,P
1457089755.5,286046995.9,N
1457089775.3,286046993.8,N
1457089795.2,286046991.6,N
1457089815.9,286046986.5,Y
1457089835.7,286046992.7,P
1457089855.6,286046997.6,P
1457089875.4,286046991.7,P
1457089895.2,286046991.7,Y
1457089915.1,286047002.2,P
1457089916.0,286047002.2,N
1457089935.8,286047005.9,N
1457089955.6,286047006.8,N
1457089975.5,286047009.9,N
1457089995.3,286047017.1,Y
1457090015.1,286047017.2,P
1457090035.9,286047016.2,N
1457090055.7,286047018.6,N
1457090075.5,286047021.8,Y
1457090095.4,286047003.1,P
1457090115.2,286047002.3,N
1457090135.0,286047000.4,N
1457090135.9,286047000.4,N
1457090155.8,286046999.1,N
1457090175.6,286047002.6,N
1457090195.4,286047009.2,N
1457090215.3,286047006.7,N
1457090235.1,286047005.8,N
1457090236.0,286047005.8,N
1457090255.8,286047007.4,N
1457090275.7,286047006.2,N
1457090295.5,286047005.2,N
1457090315.3,286047012.3,Y
1457090335.2,286047006.6,P
1457090355.9,286047010.6,P
1457090375.7,286047006.1,N
1457090395.6,286047011.3,Y
1457090415.4,286047002.9,P
1457090435.2,286047003.2,N
1457090455.0,286047004.7,N
1457090456.0,286047004.7,N
1457090475.8,286047005.9,Y
1457090495.6,286046998.7,P
1457090515.5,286046993.5,N
1457090535.3,286046991.2,N
1457090555.1,286046988.6,N
1457090575.8,286046986.7,N
1457090595.7,286046984.3,N
1457090615.5,286046981.2,N
1457090635.3,286046981.5,N
1457090655.2,286046979.6,N
1457090675.9,286046982.0,N
1457090695.7,286046979.0,N
1457090715.6,286046979.6,N
1457090735.4,286046979.6,N
1457090755.2,286046981.0,N
1457090775.1,286046983.2,N
1457090776.0,286046983.2,N
1457090795.8,286046984.4,N
1457090815.6,286046983.9,N
1457090835.5,286046983.7,N
1457090855.3,286046985.2,N
1457090875.1,286046988.0,N
1457090895.8,286046985.3,N
1457090915.7,286046989.4,N
1457090935.5,286046988.7,N
1457090955.3,286046988.6,N
1457090975.2,286046992.2,N
1457090995.9,286046993.0,N
1457091015.7,286046991.2,N
1457091035.6,286046991.3,N
1457091055.4,286046991.4,N
1457091075.2,286046990.2,N
1457091095.1,286046991.9,N
1457091096.0,286046991.9,N
1457091115.8,286046990.2,N
1457091135.6,286046988.8,N
1457091155.5,286046986.6,N
1457091175.3,286046985.8,Y
1457091195.1,286046997.7,P
1457091215.9,286046994.3,N
1457091235.7,286046992.8,N
1457091255.5,286046989.2,N
1457091275.4,286046986.4,Y
1457091295.2,286046991.6,P
1457091315.0,286046986.0,P
1457091315.9,286046986.0,P
1457091335.8,286046983.8,Y
1457091355.6,286046994.5,P
1457091375.4,286046989.1,P
1457091395.3,286046986.9,P
1457091415.1,286046989.9,Y
1457091416.0,286046989.9,P
1457091435.8,286047001.2,P
1457091455.7,286046998.4,N
1457091475.5,286047001.2,N
1457091495.3,286046998.7,N
1457091515.2,286046995.3,N
1457091535.9,286046996.2,N
1457091555.7,286046995.2,N
1457091575.5,286046997.7,N
1457091595.4,286046997.4,N
1457091615.2,286046995.6,N
1457091635.0,286046996.0,N
1457091635.9,286046996.0,N
1457091655.8,286046994.0,N
1457091675.6,286046995.8,N
1457091695.4,286046995.2,N
1457091715.3,286046993.8,N
1457091735.1,286046997.7,N
1457091736.0,286046997.7,N
1457091755.8,286046996.5,N
1457091775.7,286047001.5,N
1457091795.5,286047005.3,N
1457091815.3,286047006.5,N
1457091835.2,286047009.8,N
1457091855.9,286047009.3,N
1457091875.7,286047010.1,N
1457091895.5,286047007.7,N
1457091915.4,286047008.3,N
1457091935.2,286047006.6,N
1457091955.0,286047005.0,N
1457091955.9,286047005.0,N
1457091975.8,286047005.3,N
1457091995.6,286047003.6,N
1457092015.4,286047008.7,N
1457092035.3,286047008.0,N
1457092055.1,286047009.7,N
1457092075.8,286047013.7,N
1457092095.7,286047012.5,N
1457092115.5,286047014.1,N
1457092135.3,286047015.1,N
1457092155.2,286047014.9,N
1457092175.9,286047016.7,N
1457092195.7,286047015.8,N
1457092215.6,286047014.7,N
1457092235.4,286047016.6,N
1457092255.2,286047016.5,N
1457092275.0,286047013.4,N
1457092276.0,286047013.4,N
1457092295.8,286047013.8,N
1457092315.6,286047016.0,Y
1457092335.5,286047008.7,P
1457092355.3,286047008.5,P
1457092375.1,286047008.5,P
1457092395.9,286047009.0,Y
1457092415.7,286047000.1,P
1457092435.5,286046998.6,N
1457092455.3,286046999.8,N
1457092475.2,286047001.4,N
1457092495.0,286047003.4,N
1457092495.9,286047003.4,N
1457092515.7,286047005.9,N
1457092535.6,286047006.4,N
1457092555.4,286047007.6,N
1457092575.2,286047007.0,N
1457092595.1,286047010.0,N
1457092596.0,286047010.0,N
1457092615.8,286047009.5,N
1457092635.6,286047011.6,N
1457092655.5,286047012.1,N
1457092675.3,286047010.4,N
1457092695.1,286047011.4,N
1457092715.9,286047013.9,Y
1457092735.7,286047005.1,P
1457092755.5,286047002.8,P
1457092775.4,286046999.9,N
1457092795.2,286047001.9,N
